EW2485 Weather Reports


Display with metric or nautical units.
time (UTC)temp
F
wind
direction
speed
MPH
gust
MPH
rain 1hr
in
rain 24hr
in
rain mn
in
humidity
%
barometer
mb
20260906040043 57 63 1.0 4.0 0.00 0.00 0.00 94 1014.8
20260906034508 56 1 1.0 3.0 0.00 0.00 0.00 93 1014.8
20260906033045 57 63 1.0 3.0 0.00 0.00 0.00 93 1014.6
20260906031530 57 1 1.0 2.0 0.00 0.00 0.00 93 1014.7
20260906030101 57 1 0.0 2.0 0.00 0.00 0.00 92 1014.6
20260906030003 57 46 0.0 2.0 0.00 0.00 0.00 92 1014.5
20260906024532 57 324 2.0 3.0 0.00 0.00 0.00 92 1014.4
20260906023100 57 15 1.0 3.0 0.00 0.00 0.00 92 1014.5
20260906021519 58 303 2.0 5.0 0.00 0.00 0.00 92 1014.3
20260906020040 58 46 1.0 2.0 0.00 0.00 0.00 91 1014.4
20260906014519 58 135 1.0 4.0 0.00 0.00 0.00 91 1014.4
20260906013034 59 63 1.0 2.0 0.00 0.00 0.00 90 1014.1
20260906011602 59 178 1.0 4.0 0.00 0.00 0.00 90 1014.0
20260906010054 60 46 0.0 2.0 0.00 0.00 0.00 90 1013.9
20260906004553 61 152 1.0 2.0 0.00 0.00 0.00 90 1013.7
20260906003028 62 321 2.0 4.0 0.00 0.00 0.00 89 1013.6
20260906001511 63 326 1.0 7.0 0.00 0.00 0.00 88 1013.5
20260906000054 64 28 0.0 6.0 0.00 0.00 0.00 87 1013.3
20260905234527 65 1 1.0 6.0 0.00 0.00 0.00 86 1013.3
20260905233052 66 340 4.0 9.0 0.00 0.00 0.00 86 1013.4
20260905231530 67 309 5.0 11.0 0.00 0.00 0.00 85 1013.4
20260905230048 68 6 5.0 16.0 0.00 0.00 0.00 83 1013.3
20260905224504 69 355 5.0 11.0 0.00 0.00 0.00 83 1013.3
20260905223037 68 8 4.0 8.0 0.00 0.00 0.00 85 1013.2
20260905221553 68 318 4.0 8.0 0.00 0.00 0.00 84 1013.2
20260905220008 69 322 5.0 10.0 0.00 0.00 0.00 83 1013.1
20260905214532 69 349 4.0 13.0 0.00 0.00 0.00 83 1012.9
20260905213018 70 336 3.0 14.0 0.00 0.00 0.00 82 1012.6
20260905211549 70 337 7.0 13.0 0.00 0.00 0.00 82 1012.5
20260905210033 70 327 4.0 13.0 0.00 0.00 0.00 81 1012.6
20260905204601 70 291 6.0 14.0 0.00 0.00 0.00 80 1012.6
20260905203029 71 1 6.0 14.0 0.00 0.00 0.00 80 1012.5
20260905201555 71 269 7.0 16.0 0.00 0.00 0.00 77 1012.5
20260905200010 71 33 9.0 18.0 0.00 0.00 0.00 78 1012.6
20260905194538 71 331 8.0 13.0 0.00 0.00 0.00 82 1012.6
20260905193003 70 20 8.0 16.0 0.00 0.00 0.00 81 1012.5
20260905191531 70 25 4.0 19.0 0.00 0.00 0.00 80 1012.5
20260905190100 70 355 5.0 15.0 0.00 0.00 0.00 81 1012.6
20260905184513 70 302 5.0 16.0 0.00 0.00 0.00 83 1012.6
20260905183109 71 352 10.0 16.0 0.00 0.00 0.00 81 1012.5
20260905181537 69 330 6.0 14.0 0.00 0.00 0.00 85 1012.5
20260905180023 69 349 9.0 17.0 0.00 0.00 0.00 83 1012.6
20260905174554 69 276 5.0 14.0 0.00 0.00 0.00 84 1012.6
20260905173023 71 296 5.0 13.0 0.00 0.00 0.00 85 1012.5
20260905171545 69 15 4.0 10.0 0.00 0.00 0.00 84 1012.6
20260905170004 69 335 8.0 19.0 0.00 0.00 0.00 81 1012.8
20260905164529 69 39 3.0 15.0 0.00 0.00 0.00 83 1012.7
20260905163049 68 44 6.0 13.0 0.00 0.00 0.00 85 1012.8
20260905161516 68 323 8.0 19.0 0.00 0.00 0.00 83 1013.0
20260905160041 69 13 6.0 13.0 0.00 0.00 0.00 83 1012.9
20260905154559 69 14 7.0 14.0 0.00 0.00 0.00 84 1013.0
20260905154501 69 353 6.0 14.0 0.00 0.00 0.00 84 1012.9
20260905153024 69 348 8.0 15.0 0.00 0.00 0.00 85 1012.9
20260905151548 67 1 7.0 14.0 0.00 0.00 0.00 85 1013.0
20260905150020 69 15 9.0 15.0 0.00 0.00 0.00 86 1013.0
20260905144543 67 11 9.0 17.0 0.00 0.00 0.00 87 1012.9
20260905143021 65 324 10.0 18.0 0.00 0.00 0.00 91 1013.0
20260905141555 64 6 5.0 15.0 0.00 0.00 0.00 91 1013.2
20260905140025 65 355 6.0 15.0 0.00 0.00 0.00 91 1013.1
20260905134552 64 6 6.0 17.0 0.00 0.00 0.00 91 1013.0
20260905133010 64 293 4.0 9.0 0.00 0.00 0.00 94 1013.0
20260905131534 62 290 6.0 15.0 0.00 0.00 0.00 94 1013.1
20260905130058 62 348 6.0 11.0 0.00 0.00 0.00 95 1012.9
20260905124524 62 283 2.0 6.0 0.00 0.00 0.00 95 1013.3
20260905123040 62 178 2.0 7.0 0.00 0.00 0.00 96 1013.3
20260905121558 62 168 2.0 5.0 0.00 0.00 0.00 97 1013.3
20260905120024 60 1 2.0 7.0 0.00 0.00 0.00 96 1013.1
20260905114555 60 336 1.0 3.0 0.00 0.00 0.00 95 1012.9
20260905113048 60 63 1.0 3.0 0.00 0.00 0.00 96 1012.6
20260905111537 58 63 2.0 5.0 0.00 0.00 0.00 96 1012.6
20260905110101 57 25 2.0 4.0 0.00 0.00 0.00 95 1012.6
20260905110003 57 32 2.0 4.0 0.00 0.00 0.00 95 1012.6
20260905104526 57 223 1.0 4.0 0.00 0.00 0.00 95 1012.5
20260905103044 57 269 1.0 2.0 0.00 0.00 0.00 95 1012.1
20260905101510 57 269 2.0 3.0 0.00 0.00 0.00 95 1011.9
20260905100032 57 1 1.0 3.0 0.00 0.00 0.00 95 1011.7
20260905094550 57 344 2.0 4.0 0.00 0.00 0.00 95 1011.8
20260905093014 57 15 1.0 4.0 0.00 0.00 0.00 95 1011.6
20260905091537 57 331 1.0 4.0 0.00 0.00 0.00 94 1011.6
20260905090121 57 295 1.0 4.0 0.00 0.00 0.00 94 1011.8
20260905084542 57 28 3.0 4.0 0.00 0.00 0.00 93 1011.8
20260905083025 58 1 2.0 4.0 0.00 0.00 0.00 94 1011.8
20260905081515 58 46 1.0 3.0 0.00 0.00 0.00 94 1011.8
20260905080041 58 1 2.0 3.0 0.00 0.00 0.00 94 1011.7
20260905074559 59 314 2.0 3.0 0.00 0.00 0.00 94 1011.8
20260905074502 59 1 2.0 3.0 0.00 0.00 0.00 94 1011.8
20260905073023 59 1 1.0 3.0 0.00 0.00 0.00 94 1011.9
20260905071541 59 28 1.0 3.0 0.00 0.00 0.00 93 1012.1
20260905070002 59 28 1.0 3.0 0.00 0.00 0.00 93 1012.1
20260905064525 60 269 1.0 3.0 0.00 0.00 0.00 94 1012.2
20260905063042 60 178 1.0 5.0 0.00 0.00 0.00 94 1012.3
20260905061600 59 13 1.0 3.0 0.00 0.00 0.00 94 1012.5
20260905061506 59 35 1.0 3.0 0.00 0.00 0.00 94 1012.5
20260905060025 59 89 1.0 3.0 0.00 0.00 0.00 94 1012.4
20260905054509 59 35 1.0 3.0 0.00 0.00 0.00 93 1012.5
20260905053046 59 324 2.0 4.0 0.00 0.00 0.00 93 1012.5
20260905051533 58 39 1.0 4.0 0.00 0.00 0.00 93 1012.6
20260905050057 59 13 2.0 4.0 0.00 0.00 0.00 92 1012.7
20260905044529 59 1 2.0 3.0 0.00 0.00 0.00 92 1012.7
20260905043045 60 46 1.0 2.0 0.00 0.00 0.00 92 1012.7
20260905041511 60 269 1.0 5.0 0.00 0.00 0.00 92 1012.7